Regional Weather Roundup
Issued by NWS

Home | Current Version | Previous Version | Text Only | Print | Product List | Glossary On
Versions: 1 2 3 4 5 6 7 8 9 10 11 12 13 14 15 16 17 18 19 20 21 22 23 24 25 26 27 28 29 30 31 32 33 34 35 36 37 38 39 40 41 42 43 44 45 46 47 48 49 50
000
ASUS43 KTOP 290208
RWRKS

WEATHER ROUNDUP FOR KANSAS
NATIONAL WEATHER SERVICE GOODLAND KS
900 PM CDT SAT MAR 28 2015

NOTE:  "FAIR" INDICATES FEW OR NO CLOUDS BELOW 12,000 FEET WITH NO
SIGNIFICANT WEATHER AND/OR OBSTRUCTIONS TO VISIBILITY.

KSZ001>006-013>018-027>032-041>047-290300-
NORTHWEST KANSAS

CITY           SKY/WX    TMP DP  RH WIND       PRES   REMARKS
GOODLAND       CLEAR     67  26  21 S12       29.86F
HAYS           CLEAR     61  37  41 SE15      29.92S
HILL CITY      CLEAR     64  39  39 SE10      29.88S
RUSSELL        CLEAR     57  40  52 SE14      29.91F
$$

KSZ061>065-074>080-084>089-290300-
SOUTHWEST KANSAS

CITY           SKY/WX    TMP DP  RH WIND       PRES   REMARKS
DODGE CITY     CLEAR     64  38  38 SE17      29.93S
ELKHART          N/A     72  28  19 S8          N/A
GARDEN CITY    CLEAR     64  38  38 SE15      29.91R
GREAT BEND     CLEAR     57  39  51 SE12      29.95S
LIBERAL        CLEAR     66  30  26 SE8       29.94R
PRATT          CLEAR     61  41  48 SE10      29.98S
$$

KSZ066>073-081>083-090>101-290300-
SOUTHEAST KANSAS

CITY           SKY/WX    TMP DP  RH WIND       PRES   REMARKS
CHANUTE        CLEAR     50  38  63 E14       30.08R
COFFEYVILLE    CLEAR     54  42  64 E10       30.06R
HUTCHINSON     CLEAR     59  40  49 SE9       29.99R
MEDICINE LODGE   N/A     64  43  46 SE10      29.97R
NEWTON         CLEAR     55  37  50 SE10      30.02S
PARSONS        CLEAR     53  40  61 E8        30.08R
WICHITA INTL   CLEAR     62  40  44 SE14      30.00R
WICHITA JABRA  CLEAR     58  40  51 SE8       30.01R
WICHITA MCCONL CLEAR     61  41  47 E12       30.00R
WINFIELD       CLEAR     61  41  47 SE10      30.03R
$$

KSZ007>012-019>026-033>040-048>060-102>105-290300-
NORTHEAST KANSAS

CITY           SKY/WX    TMP DP  RH WIND       PRES   REMARKS
CONCORDIA      CLEAR     51  35  54 SE12      29.97S
EMPORIA        CLEAR     50  37  61 SE12      30.04S
LAWRENCE       CLEAR     46  32  58 SE14      30.10R
MANHATTAN      CLEAR     52  36  54 SE6       30.03R
MARYSVILLE     FAIR      48  34  57 SE10G17   30.02R
OLATHE IND     CLEAR     45  32  60 SE12      30.11S
OLATHE EXE     CLEAR     45  31  58 SE10      30.11R
SALINA         CLEAR     57  38  48 SE10      29.99R
TOPEKA BILLARD CLEAR     48  32  53 SE12      30.08R
TOPEKA FORBES  CLEAR     49  33  54 SE12      30.06S
$$



USA.gov is the U.S. government's official web portal to all federal, state and local government web resources and services.